TimeEST,TemperatureF,Dew PointF,Humidity,Sea Level PressureIn,VisibilityMPH,Wind Direction,Wind SpeedMPH,Gust SpeedMPH,PrecipitationIn,Events,Conditions,WindDirDegrees,DateUTC
12:15 AM,39.7,27.0,60,29.91,10.0,North,5.8,-,N/A,,Overcast,350,2013-03-02 05:15:00
12:35 AM,39.9,26.6,59,29.91,10.0,NNW,4.6,-,N/A,,Overcast,340,2013-03-02 05:35:00
12:55 AM,39.9,26.4,59,29.91,10.0,NNW,8.1,-,N/A,,Overcast,330,2013-03-02 05:55:00
1:15 AM,39.9,26.2,58,29.92,10.0,NNW,5.8,-,N/A,,Overcast,340,2013-03-02 06:15:00
1:35 AM,39.6,26.4,59,29.92,10.0,NNW,3.5,-,N/A,,Overcast,340,2013-03-02 06:35:00
1:55 AM,38.8,27.1,63,29.92,10.0,NW,4.6,-,N/A,,Overcast,310,2013-03-02 06:55:00
2:15 AM,39.2,26.8,61,29.92,10.0,NW,3.5,-,N/A,,Overcast,320,2013-03-02 07:15:00
2:35 AM,38.7,27.5,64,29.92,10.0,Calm,Calm,-,N/A,,Overcast,0,2013-03-02 07:35:00
2:55 AM,38.3,28.2,67,29.91,10.0,North,3.5,-,N/A,,Overcast,360,2013-03-02 07:55:00
3:15 AM,38.8,26.6,61,29.90,10.0,NNW,3.5,-,N/A,,Overcast,340,2013-03-02 08:15:00
3:35 AM,38.8,26.6,61,29.90,10.0,Calm,Calm,-,N/A,,Overcast,0,2013-03-02 08:35:00
3:55 AM,38.7,26.6,62,29.90,10.0,NNW,4.6,-,N/A,,Overcast,330,2013-03-02 08:55:00
4:15 AM,38.5,26.6,62,29.90,10.0,NNW,3.5,-,N/A,,Overcast,330,2013-03-02 09:15:00
4:55 AM,38.3,26.1,61,29.88,10.0,North,3.5,-,N/A,,Overcast,360,2013-03-02 09:55:00
5:15 AM,37.8,25.7,62,29.88,10.0,Calm,Calm,-,N/A,,Overcast,0,2013-03-02 10:15:00
5:35 AM,34.9,26.6,72,29.88,10.0,Calm,Calm,-,N/A,,Overcast,0,2013-03-02 10:35:00
6:15 AM,32.0,27.3,83,29.88,10.0,Calm,Calm,-,N/A,,Mostly Cloudy,0,2013-03-02 11:15:00
7:15 AM,32.0,28.6,87,29.89,10.0,Calm,Calm,-,N/A,,Overcast,0,2013-03-02 12:15:00
7:35 AM,32.9,29.1,86,29.90,10.0,Calm,Calm,-,N/A,,Overcast,0,2013-03-02 12:35:00
7:55 AM,34.3,29.8,84,29.90,10.0,Calm,Calm,-,N/A,,Overcast,0,2013-03-02 12:55:00
8:15 AM,36.0,30.4,80,29.91,10.0,Calm,Calm,-,N/A,,Overcast,0,2013-03-02 13:15:00
8:35 AM,37.2,28.4,70,29.91,10.0,Calm,Calm,-,N/A,,Overcast,0,2013-03-02 13:35:00
8:55 AM,38.5,28.2,67,29.91,10.0,Calm,Calm,-,N/A,,Overcast,0,2013-03-02 13:55:00
9:15 AM,39.9,28.2,63,29.90,10.0,NNW,5.8,-,N/A,,Overcast,330,2013-03-02 14:15:00
9:35 AM,40.5,27.5,60,29.90,10.0,NNW,5.8,-,N/A,,Overcast,330,2013-03-02 14:35:00
9:55 AM,40.6,27.0,58,29.90,10.0,North,5.8,-,N/A,,Overcast,350,2013-03-02 14:55:00
10:15 AM,41.7,26.8,55,29.90,10.0,Calm,Calm,-,N/A,,Overcast,0,2013-03-02 15:15:00
10:35 AM,43.0,26.4,52,29.89,10.0,NNW,10.4,16.1,N/A,,Overcast,330,2013-03-02 15:35:00
10:55 AM,43.2,25.2,49,29.89,10.0,NW,10.4,16.1,N/A,,Overcast,310,2013-03-02 15:55:00
11:15 AM,44.6,25.3,47,29.89,10.0,NNW,10.4,16.1,N/A,,Overcast,340,2013-03-02 16:15:00
11:35 AM,44.4,25.3,47,29.89,10.0,NW,9.2,-,N/A,,Overcast,310,2013-03-02 16:35:00
11:55 AM,44.8,25.3,47,29.88,10.0,NNW,12.7,17.3,N/A,,Overcast,330,2013-03-02 16:55:00
12:15 PM,43.7,25.7,49,29.88,10.0,North,5.8,11.5,N/A,,Overcast,350,2013-03-02 17:15:00
12:35 PM,45.3,26.4,48,29.87,10.0,NNW,11.5,16.1,N/A,,Overcast,330,2013-03-02 17:35:00
12:55 PM,44.2,26.8,50,29.87,10.0,NW,11.5,-,N/A,,Overcast,320,2013-03-02 17:55:00
1:15 PM,45.3,26.4,48,29.85,10.0,NNW,12.7,-,N/A,,Overcast,340,2013-03-02 18:15:00
1:35 PM,44.6,25.5,47,29.85,10.0,NW,9.2,16.1,N/A,,Overcast,320,2013-03-02 18:35:00
1:55 PM,44.8,25.5,47,29.85,10.0,NNW,16.1,20.7,N/A,,Overcast,340,2013-03-02 18:55:00
2:15 PM,46.0,26.1,46,29.84,10.0,North,12.7,16.1,N/A,,Overcast,350,2013-03-02 19:15:00
2:35 PM,45.7,25.5,45,29.84,10.0,North,12.7,17.3,N/A,,Overcast,350,2013-03-02 19:35:00
2:55 PM,45.9,24.3,43,29.84,10.0,NW,10.4,-,N/A,,Overcast,320,2013-03-02 19:55:00
3:15 PM,45.5,24.1,43,29.84,10.0,NNW,15.0,-,N/A,,Overcast,340,2013-03-02 20:15:00
3:35 PM,44.1,24.4,46,29.84,10.0,NNW,11.5,-,N/A,,Overcast,340,2013-03-02 20:35:00
3:55 PM,43.0,24.1,47,29.85,10.0,NNW,13.8,17.3,N/A,,Overcast,340,2013-03-02 20:55:00
4:15 PM,42.3,23.9,48,29.86,10.0,NW,16.1,21.9,N/A,,Overcast,320,2013-03-02 21:15:00
4:35 PM,41.2,23.5,50,29.86,10.0,NNW,17.3,21.9,N/A,,Mostly Cloudy,330,2013-03-02 21:35:00
4:55 PM,40.5,23.7,51,29.87,10.0,NNW,13.8,-,N/A,,Overcast,340,2013-03-02 21:55:00
5:15 PM,39.6,23.9,54,29.87,10.0,North,11.5,-,N/A,,Overcast,350,2013-03-02 22:15:00
5:35 PM,39.2,23.5,53,29.88,10.0,North,10.4,-,N/A,,Overcast,350,2013-03-02 22:35:00
5:55 PM,38.5,23.0,54,29.89,10.0,NNW,11.5,18.4,N/A,,Overcast,340,2013-03-02 22:55:00
6:15 PM,38.3,23.0,54,29.90,10.0,NNW,9.2,17.3,N/A,,Overcast,340,2013-03-02 23:15:00
6:35 PM,37.6,22.1,54,29.90,10.0,NNW,11.5,-,N/A,,Overcast,330,2013-03-02 23:35:00
6:55 PM,37.4,21.6,53,29.91,10.0,North,12.7,-,N/A,,Overcast,350,2013-03-02 23:55:00
7:15 PM,36.9,20.8,52,29.91,10.0,NNW,8.1,-,N/A,,Overcast,340,2013-03-03 00:15:00
7:35 PM,36.5,20.3,52,29.92,10.0,NNW,9.2,17.3,N/A,,Overcast,340,2013-03-03 00:35:00
7:55 PM,36.1,20.3,53,29.92,10.0,North,9.2,17.3,N/A,,Overcast,350,2013-03-03 00:55:00
8:15 PM,36.0,19.8,52,29.93,10.0,NNW,8.1,-,N/A,,Overcast,340,2013-03-03 01:15:00
8:35 PM,35.6,19.8,53,29.93,10.0,NNW,6.9,-,N/A,,Overcast,340,2013-03-03 01:35:00
8:55 PM,34.9,19.2,53,29.93,10.0,North,9.2,-,N/A,,Overcast,360,2013-03-03 01:55:00
9:15 PM,34.3,19.8,55,29.94,10.0,NNW,8.1,-,N/A,,Overcast,340,2013-03-03 02:15:00
9:35 PM,33.8,19.9,57,29.94,10.0,North,9.2,-,N/A,,Mostly Cloudy,350,2013-03-03 02:35:00
9:55 PM,32.9,20.1,59,29.94,10.0,NNW,6.9,-,N/A,,Scattered Clouds,340,2013-03-03 02:55:00
10:15 PM,33.3,20.1,59,29.94,10.0,NNW,10.4,-,N/A,,Mostly Cloudy,330,2013-03-03 03:15:00
10:35 PM,32.9,20.3,60,29.94,10.0,NNW,9.2,-,N/A,,Mostly Cloudy,340,2013-03-03 03:35:00
10:55 PM,33.8,20.1,57,29.94,10.0,NNW,8.1,-,N/A,,Mostly Cloudy,340,2013-03-03 03:55:00
11:15 PM,34.0,20.8,59,29.93,10.0,NNW,9.2,-,N/A,,Overcast,330,2013-03-03 04:15:00
11:35 PM,34.2,21.0,59,29.93,10.0,NNW,8.1,-,N/A,,Overcast,340,2013-03-03 04:35:00
11:55 PM,34.3,21.2,59,29.93,10.0,NW,8.1,-,N/A,,Overcast,320,2013-03-03 04:55:00